Olmida — ZCNU4 — position and weather

sailwx.info

Track history (hours):
 
Tides and Currents Weather Stations Pressure Air Temp Water Temp Dewpoint Dewpoint Depression Visibility Wind Speed Wind Dir Waves Ship Positions

Olmida

Last reported at 2015-May-12 12:23 UTC. Time now 2015-May-30 18:33 UTC.
Position N 43°30' E 007°03'.
Warning: this ship's position is 18 days out of date.

; draft 3.2 m.

Type: Pleasure craft. MMSI: 319196000.

Date/timePositionNaut miles runAvg speedWind from/ knotsBaromVisibWave heightAir tempDewpointWater temp
2015-May-12 12:23N 43°30' E 007°03'1113.4
2015-May-12 11:33N 43°37' E 007°16'10 4.8
2015-May-12 09:23N 43°44' E 007°25'0 0.0
2015-May-12 07:11N 43°44' E 007°25'0 0.0
2015-May-12 06:23N 43°44' E 007°25'0 0.0
2015-May-12 02:11N 43°44' E 007°25'0 0.0
2015-May-11 17:11N 43°44' E 007°25'0 0.0
2015-May-11 15:16N 43°44' E 007°25'0 0.0
2015-May-11 03:22N 43°44' E 007°25'0 0.0
2015-May-11 02:33N 43°44' E 007°25'0 0.0
2015-May-10 06:07N 43°44' E 007°25'0 0.0
2015-May-10 02:27N 43°44' E 007°25'0 0.0
2015-May-09 14:16N 43°44' E 007°25'0 0.0
2015-May-07 17:16N 43°44' E 007°25'3 0.1
2015-May-06 17:15N 43°42' E 007°23'912.7
2015-May-06 16:33N 43°36' E 007°13'9 7.0
2015-May-06 15:19N 43°32' E 007°03'0 0.0
2015-May-06 14:31N 43°32' E 007°03'0 0.0
2015-May-06 12:18N 43°32' E 007°03'0 0.0
2015-May-06 11:21N 43°32' E 007°03'1 1.1
2015-May-06 10:22N 43°32' E 007°04'  
2015-May-03 16:33N 43°40' E 007°20'1313.3
2015-May-03 15:33N 43°32' E 007°06'2 1.6
2015-May-03 14:10N 43°32' E 007°03'0 0.0
2015-May-03 12:31N 43°32' E 007°03'0 0.0
2015-May-03 11:32N 43°32' E 007°03'7 6.7
2015-May-03 10:33N 43°35' E 007°11'  
Track history (hours):
 
Tides and Currents Weather Stations Pressure Air Temp Water Temp Dewpoint Dewpoint Depression Visibility Wind Speed Wind Dir Waves Ship Positions

Olmida

Last reported at 2015-May-12 12:23 UTC. Time now 2015-May-30 18:33 UTC.
Position N 43°30' E 007°03'.
Warning: this ship's position is 18 days out of date.

; draft 3.2 m.

Type: Pleasure craft. MMSI: 319196000.

Date/timePositionNaut miles runAvg speedWind from/ knotsBaromVisibWave heightAir tempDewpointWater temp
2015-May-12 12:23N 43°30' E 007°03'1113.4
2015-May-12 11:33N 43°37' E 007°16'10 4.8
2015-May-12 09:23N 43°44' E 007°25'0 0.0
2015-May-12 07:11N 43°44' E 007°25'0 0.0
2015-May-12 06:23N 43°44' E 007°25'0 0.0
2015-May-12 02:11N 43°44' E 007°25'0 0.0
2015-May-11 17:11N 43°44' E 007°25'0 0.0
2015-May-11 15:16N 43°44' E 007°25'0 0.0
2015-May-11 03:22N 43°44' E 007°25'0 0.0
2015-May-11 02:33N 43°44' E 007°25'0 0.0
2015-May-10 06:07N 43°44' E 007°25'0 0.0
2015-May-10 02:27N 43°44' E 007°25'0 0.0
2015-May-09 14:16N 43°44' E 007°25'0 0.0
2015-May-07 17:16N 43°44' E 007°25'3 0.1
2015-May-06 17:15N 43°42' E 007°23'912.7
2015-May-06 16:33N 43°36' E 007°13'9 7.0
2015-May-06 15:19N 43°32' E 007°03'0 0.0
2015-May-06 14:31N 43°32' E 007°03'0 0.0
2015-May-06 12:18N 43°32' E 007°03'0 0.0
2015-May-06 11:21N 43°32' E 007°03'1 1.1
2015-May-06 10:22N 43°32' E 007°04'  
2015-May-03 16:33N 43°40' E 007°20'1313.3
2015-May-03 15:33N 43°32' E 007°06'2 1.6
2015-May-03 14:10N 43°32' E 007°03'0 0.0
2015-May-03 12:31N 43°32' E 007°03'0 0.0
2015-May-03 11:32N 43°32' E 007°03'7 6.7
2015-May-03 10:33N 43°35' E 007°11'  

Dump ship's entire track history